GLOBALSTAR M069 1 31573U 07020C 26127.83714571 -.00000084 00000+0 79441-4 0 9993 2 31573 52.0062 6.3320 0002585 67.9777 11.5577 12.23470480873862 GLOBALSTAR M072 1 31574U 07020D 26127.73246303 -.00000056 00000+0 38044-3 0 9998 2 31574 51.9922 207.9483 0001388 213.8212 322.9800 11.91657884870157 GLOBALSTAR M066 1 32265U 07048C 26127.88855860 -.00000105 00000+0 -92201-4 0 9998 2 32265 51.9570 173.5999 0004598 315.4494 215.4859 12.30388231855267 GLOBALSTAR M079 1 37188U 10054A 26127.77600411 -.00000076 00000+0 15373-3 0 9996 2 37188 52.0039 231.6879 0000359 158.7730 9.9372 12.62265470717440 GLOBALSTAR M074 1 37189U 10054B 26127.72221630 -.00000081 00000+0 12519-3 0 9999 2 37189 52.0016 231.1234 0000480 116.2287 47.8049 12.62267834718042 GLOBALSTAR M076 1 37190U 10054C 26127.55693095 -.00000083 00000+0 11721-3 0 9996 2 37190 52.0027 231.8244 0000288 103.7985 269.8199 12.62272604717745 GLOBALSTAR M077 1 37191U 10054D 26127.35886365 -.00000095 00000+0 -30755-3 0 9991 2 37191 51.9969 282.9245 0003286 101.1540 268.6035 11.67547193716373 GLOBALSTAR M075 1 37192U 10054E 26127.84097978 -.00000079 00000+0 13961-3 0 9991 2 37192 51.9954 273.0381 0000735 116.4444 47.6342 12.62266465716842 GLOBALSTAR M073 1 37193U 10054F 26127.51901683 -.00000086 00000+0 97445-4 0 9991 2 37193 52.0052 188.0879 0000121 194.3541 304.9500 12.62266890718796 GLOBALSTAR M083 1 37739U 11033A 26127.77664698 -.00000109 00000+0 -30415-4 0 9996 2 37739 51.9841 135.5853 0000145 308.2089 223.9019 12.62262768687840 GLOBALSTAR M088 1 37740U 11033B 26127.79973502 -.00000097 00000+0 37835-4 0 9995 2 37740 52.0230 41.8451 0000708 67.6170 327.3339 12.62263174683393 GLOBALSTAR M091 1 37741U 11033C 26127.82194935 -.00000096 00000+0 44072-4 0 9995 2 37741 52.0022 4.8031 0000688 91.9458 345.4751 12.62263040684181 GLOBALSTAR M085 1 37742U 11033D 26127.79459550 -.00000094 00000+0 52498-4 0 9998 2 37742 52.0136 316.1437 0000717 114.4586 258.7678 12.62263112684693 GLOBALSTAR M081 1 37743U 11033E 26127.84077631 -.00000082 00000+0 12225-3 0 9991 2 37743 51.9972 318.4861 0000709 93.9242 8.6119 12.62264108684842 GLOBALSTAR M089 1 37744U 11033F 26127.81492578 -.00000084 00000+0 10798-3 0 9995 2 37744 51.9934 272.7308 0000784 93.6616 71.8777 12.62266227685683 GLOBALSTAR M084 1 38040U 11080A 26127.75016271 -.00000107 00000+0 -20579-4 0 9998 2 38040 51.9982 140.3867 0000369 34.7485 136.2858 12.62266925663659 GLOBALSTAR M080 1 38041U 11080B 26127.80102610 -.00000108 00000+0 -24269-4 0 9999 2 38041 52.0036 141.9367 0000447 159.2386 12.8559 12.62268845663788 GLOBALSTAR M082 1 38042U 11080C 26127.33587992 -.00000111 00000+0 -41138-4 0 9996 2 38042 52.0061 98.8465 0000201 117.1379 30.3398 12.62269436664435 GLOBALSTAR M092 1 38043U 11080D 26127.63024567 -.00000098 00000+0 34870-4 0 9992 2 38043 52.0070 188.3486 0000283 129.3078 35.7401 12.62267015662922 GLOBALSTAR M090 1 38044U 11080E 26127.60547406 -.00000108 00000+0 -21145-4 0 9996 2 38044 52.0112 91.9684 0000279 36.5801 135.6476 12.62268382664581 GLOBALSTAR M086 1 38045U 11080F 26127.83070470 -.00000095 00000+0 47184-4 0 9999 2 38045 51.9885 91.2788 0001068 340.9891 33.4601 12.62285758664562 GLOBALSTAR M097 1 39072U 13005A 26127.38253487 -.00000146 00000+0 -23529-3 0 9994 2 39072 52.0077 7.5451 0000579 84.3320 275.7613 12.62259492611750 GLOBALSTAR M093 1 39073U 13005B 26127.83134938 -.00000094 00000+0 52751-4 0 9995 2 39073 52.0128 359.5131 0000452 85.0795 275.0124 12.62264908611766 GLOBALSTAR M094 1 39074U 13005C 26127.35626639 -.00000089 00000+0 82339-4 0 9996 2 39074 51.9958 275.1172 0000558 129.3805 230.7111 12.62268030613312 GLOBALSTAR M096 1 39075U 13005D 26127.84472235 -.00000090 00000+0 76661-4 0 9995 2 39075 52.0086 322.4000 0000683 106.6359 253.4583 12.62264705612290 GLOBALSTAR M078 1 39076U 13005E 26127.73843214 -.00000077 00000+0 14804-3 0 9998 2 39076 51.9895 46.7837 0000961 137.3075 222.7867 12.62261571610904 GLOBALSTAR M095 1 39077U 13005F 26127.76524146 -.00000094 00000+0 54389-4 0 9994 2 39077 52.0100 44.2503 0000364 108.9604 251.1303 12.62267385610762 GLOBALSTAR M087 1 52888U 22064A 26127.85786237 -.00000099 00000+0 28716-4 0 9995 2 52888 51.9981 185.2349 0000340 187.6289 172.4572 12.62268764186047